Showing default

FLOCK 4BE 2, 60511

Orbit data source: Space-Track

FLOCK 4BE 2, 60511 is a payload satellite owned by Planet (US) in SSO that was launched on Fri, 16 Aug 2024 UTC via an FALCON 9 launch vehicle from the Air Force Western Test Range (AFWTR). Payload-class satellites include a variety of spacecraft equipped with specific instruments for various scientific and technological missions. These include communications satellites like Starlink; space stations such as the ISS; scientific satellites like the Hubble; Earth observation satellites from companies like Planet Labs, Umbra, and HawkEye 360; GPS; miniature CubeSats for education and research; and military/defense satellites.

Loading next visibility...
Identifier
60511, 2024-149AV
Orbit
SSO
Country
Flag of USUS
Related business
Manufacturer
Planet
Mission
Operational Commercial Imaging
Bus & Motor
CUBESAT 3U, Unknown motor
Mass
5.7 kg wet, 5.7 kg dry
Launch date (UTC)
2024-08-16 (1 year ago)
Launch vehicle
FALCON 9
Launch site
Air Force Western Test Range (AFWTR)
Object type
Payload
Rocket body
Debris
Shape & HBR
Box + 2 Pan, 1.0 m
Radar Cross Section
0.072 m², Medium (>0.1 m² and < 1m²)

Expand to show TLE details & history
Last TLE update: 6 hours ago

TLE from 6 hours ago
0 FLOCK 4BE 2
1 60511U 24149AV  26035.19950578  .00025680  00000-0  64390-3 0  9999
2 60511  97.3907 120.0046 0003811  54.6342 305.5260 15.40017840 81954
Epoch: 2026-02-04T04:47Z
TLE epoch observation values (Epoch: 2026-02-04T04:47:17.299Z)
Latitude
0.00001°
Longitude
-86.18699°
Altitude
447.664 km
Speed
7.644 km/s
True Right ascension
08h 00m 01s
True Declination
0° 00' 00"
Sunlit
Object was in full shadow at epoch
Visualization orbit readout
Latitude
Unknown
Longitude
Unknown
Altitude
Unknown
Speed
Unknown
Apparent Right ascension
Unknown
Apparent Declination
Unknown
Sunlit
N/A
Visualization observer readout
Local Sidereal Time
12:25:23
Azimuth
Unknown
Elevation
Unknown
Doppler factor
Unknown
Orbital elements
Apogee altitude
445.595 km
Perigee altitude
440.396 km
Semi-major axis
6,821.132 km
Eccentricity
0.00038
Inclination
97.3907°
RAAN
120.0046°
Arg. of periapsis
54.6342°
True anomaly
305.49045°
Mean anomaly
305.526°
Eccentric anomaly
305.50823°
Mean motion
3.85264 °/min
Orbital period
93.44 mins
BSTAR
0.0006439
Loading maneuver chart data...
Computing Atmospheric mass density...
Loading historical data...
Loading historical data...
Loading historical data...
Loading historical data...
Loading historical data...
Loading historical data...
Loading historical data...

Documentation

Showing up to 5 results
|